[[{"header":{"parameterUnit":"m.s-1","parameterCategory":1,"la1":30.2991,"la2":30.254,"lo1":-89.0895,"lo2":-89.0444,"dy":0.0017,"dx":0.0017,"nx":28,"ny":28,"refTime":"2023-07-27T03:00:00:Z","depth":0,"parameterNumber":2,"parameterNumberName":"U-component_of_WINDS"},"data":[0,0,0,0,0,0,0,0,0,0,0,0,0,0,0,0,0,0,0,0,0,0,0,0,0,0,0,0,0,0,0,0,0,0,0,0,0,0,0,0,0,0,0,0,0,0,0,0,0,0,0,0,0,0,0,0,0,0,0.5403,0.5401,0,0.5244,0.5242,0.524,0.5071,0.5069,0.5067,0.5065,0.4905,0.4903,0.4901,0,0,0,0,0,0,0,0,0,0,0,0,0,0.5565,0.5563,0.5403,0.5401,0.5399,0.5244,0.5242,0.524,0.5072,0.5069,0.5066,0.5063,0.4905,0.4903,0.49,0,0,0,0,0,0,0,0,0,0,0,0,0,0.5459,0.5562,0.5404,0.5297,0.5286,0.5244,0.5242,0.5239,0.5073,0.5069,0.5065,0.5062,0.4906,0.4903,0.49,0.4952,0,0,0.4891,0.4889,0,0,0,0,0,0,0,0,0.5465,0.5453,0.5315,0.5304,0.5292,0.5174,0.524,0.5143,0.5073,0.5154,0.5064,0.506,0.4997,0.4986,0.4964,0.4945,0.4938,0.489,0.4888,0.4887,0.4886,0,0,0,0,0,0,0,0.5473,0.5459,0.534,0.5313,0.5299,0.5258,0.5239,0.5221,0.5097,0.5146,0.5134,0.5117,0.499,0.4968,0.4959,0.4935,0.489,0.4888,0.4886,0.4885,0.495,0.4953,0,0,0,0,0,0,0.5496,0.5467,0.5345,0.5335,0.5371,0.5258,0.5236,0.5215,0.5097,0.5076,0.512,0.511,0.4975,0.4963,0.4953,0.5007,0.4887,0.4884,0.4882,0.4947,0.4951,0.4955,0,0,0,0,0,0,0.55,0.5487,0.5352,0.5397,0.5377,0.5258,0.5236,0.5214,0.5191,0.5077,0.5055,0.512,0.4971,0.4957,0.4953,0.4999,0.4883,0.488,0.4942,0.4948,0.4953,0.5115,0,0,0,0,0,0,0.5506,0.5489,0.5508,0.5399,0.5375,0.5355,0.5239,0.5213,0.5186,0.5171,0.5071,0.5051,0.4968,0.4959,0.495,0.4993,0.4878,0.4938,0.4945,0.4951,0.5105,0.5125,0.5142,0,0,0,0,0,0.5512,0.556,0.551,0.5496,0.5396,0.5358,0.5344,0.5246,0.519,0.5208,0.5135,0.5054,0.4995,0.496,0.4949,0.4991,0.4934,0.4943,0.4951,0.5097,0.5121,0.5142,0,0,0,0,0,0,0.5679,0.5544,0.5486,0.5501,0.5442,0.5329,0.5349,0.5275,0.5232,0.522,0.5101,0.508,0.509,0.5039,0.5003,0.5035,0.4953,0.496,0.5068,0.509,0.5109,0.5122,0.4875,0,0,0,0,0,0.5717,0.5697,0.558,0.5605,0.5578,0.5469,0.5448,0.5378,0.5312,0.5287,0.5213,0.5154,0.5121,0.5102,0.5066,0.5096,0.5072,0.5119,0.5138,0.5154,0.5161,0.5174,0.5193,0.4981,0.4981,0.4981,0,0,0.5797,0.572,0.5715,0.5636,0.5582,0.5564,0.5449,0.5435,0.5421,0.5285,0.5277,0.5221,0.5146,0.5159,0.5161,0.5117,0.5214,0.5164,0.5178,0.5176,0.5184,0.5204,0.5222,0.4987,0.4986,0.4985,0,0,0.5933,0.5873,0.5886,0.5834,0.5753,0.568,0.5683,0.5581,0.5538,0.5527,0.5425,0.5407,0.5353,0.5304,0.5273,0.5389,0.5313,0.538,0.5479,0.5492,0.5509,0.5523,0.5566,0.5582,0.5388,0.5388,0.5388,0,0.6043,0.6011,0.5903,0.5895,0.5864,0.5738,0.5751,0.5706,0.5618,0.56,0.5551,0.5481,0.5422,0.5422,0.5451,0.5428,0.5429,0.5392,0.5515,0.5528,0.554,0.5579,0.5596,0.5397,0.5396,0.5395,0.5394,0,0.615,0.613,0.615,0.6068,0.6038,0.6041,0.5935,0.5918,0.5849,0.5782,0.5773,0.5697,0.5643,0.5637,0.5571,0.5628,0.5603,0.5537,0.5453,0.5571,0.5606,0.562,0.5409,0.5406,0.5403,0.5401,0,0,0.6389,0.6245,0.6255,0.6216,0.6116,0.6099,0.6096,0.6042,0.6031,0.5974,0.5969,0.5926,0.5863,0.5828,0.5754,0.5766,0.5864,0.5697,0.5693,0.5732,0.5923,0.5975,0.5995,0.5812,0.5814,0.5816,0.593,0,0.651,0.6496,0.6399,0.6414,0.6394,0.6274,0.6271,0.621,0.6147,0.6121,0.605,0.6022,0.5941,0.5918,0.5924,0.5851,0.5901,0.5841,0.5808,0.5808,0.5833,0.6012,0.6068,0.6179,0.5942,0.5945,0.5946,0,0.6649,0.6599,0.6613,0.6513,0.65,0.65,0.6443,0.6419,0.6348,0.63,0.626,0.6177,0.6167,0.6087,0.6073,0.6034,0.6014,0.5976,0.5978,0.5973,0.5886,0.6014,0.6211,0.6229,0.5967,0.5965,0.5963,0,0.6824,0.676,0.676,0.673,0.6613,0.6616,0.6567,0.6491,0.6465,0.6415,0.6397,0.6347,0.632,0.6284,0.6189,0.6139,0.6187,0.6098,0.6148,0.6151,0.6166,0.6167,0.6365,0.615,0.615,0.615,0.6149,0,0.697,0.6983,0.6837,0.6838,0.6849,0.6736,0.6751,0.669,0.6624,0.6611,0.6503,0.6493,0.6368,0.6344,0.6269,0.627,0.6258,0.622,0.6201,0.6231,0.6236,0.6218,0.6209,0.6154,0.6153,0.6152,0.6152,0,0.7169,0.7071,0.7063,0.6952,0.6924,0.6938,0.6843,0.6839,0.6768,0.6752,0.6742,0.6631,0.6597,0.6498,0.6439,0.6389,0.6412,0.6374,0.6436,0.6424,0.648,0.6477,0.6676,0.6696,0.6468,0.6471,0.6473,0,0.7269,0.7276,0.7166,0.7149,0.7104,0.7078,0.7051,0.6939,0.6915,0.6833,0.684,0.6796,0.6756,0.6708,0.6622,0.6576,0.6537,0.661,0.653,0.656,0.654,0.6542,0.6542,0.6629,0.6632,0.6634,0.6636,0,0.7458,0.7409,0.7373,0.732,0.729,0.7243,0.719,0.7183,0.7058,0.7036,0.6999,0.6968,0.6907,0.6866,0.6806,0.6756,0.6677,0.6661,0.6671,0.6703,0.674,0.6722,0.6486,0.6658,0.6656,0.6654,0.6653,0.6652,0.7612,0.7613,0.7535,0.7498,0.7446,0.7399,0.739,0.7316,0.7284,0.7225,0.7161,0.7132,0.7059,0.697,0.6926,0.6902,0.6859,0.6872,0.6876,0.6882,0.6896,0.6742,0.689,0.6889,0.6889,0.6888,0.6887,0,0.7797,0.774,0.7707,0.7636,0.7608,0.7532,0.7469,0.7451,0.7426,0.7364,0.7326,0.7284,0.7243,0.7154,0.7105,0.7103,0.7065,0.7094,0.7094,0.7084,0.6937,0.6934,0.7126,0.7126,0.7126,0.7126,0.7126,0.7126,0.789,0.7888,0.783,0.78,0.7743,0.7713,0.7684,0.764,0.759,0.7548,0.7513,0.7454,0.7381,0.7326,0.7285,0.726,0.7248,0.7289,0.7253,0.7117,0.7095,0.7073,0.707,0.7287,0.7287,0.7402,0.7403,0.7404]},{"header":{"parameterUnit":"m.s-1","parameterCategory":1,"la1":30.2991,"la2":30.254,"lo1":-89.0895,"lo2":-89.0444,"dy":0.0017,"dx":0.0017,"nx":28,"ny":28,"refTime":"2023-07-27T03:00:00:Z","depth":0,"parameterNumber":3,"parameterNumberName":"V-component_of_WINDS"},"data":[0,0,0,0,0,0,0,0,0,0,0,0,0,0,0,0,0,0,0,0,0,0,0,0,0,0,0,0,0,0,0,0,0,0,0,0,0,0,0,0,0,0,0,0,0,0,0,0,0,0,0,0,0,0,0,0,0,0,-1.0718,-1.0716,0,-1.0548,-1.0546,-1.0544,-1.0453,-1.0453,-1.0453,-1.0453,-1.0275,-1.0271,-1.0266,0,0,0,0,0,0,0,0,0,0,0,0,0,-1.0961,-1.0957,-1.0718,-1.0716,-1.0714,-1.0548,-1.0546,-1.0544,-1.0453,-1.0453,-1.0453,-1.0453,-1.0277,-1.0272,-1.0266,0,0,0,0,0,0,0,0,0,0,0,0,0,-1.083,-1.0956,-1.0719,-1.0649,-1.0641,-1.0549,-1.0546,-1.0543,-1.0453,-1.0453,-1.0453,-1.0453,-1.0279,-1.0272,-1.0265,-1.0228,0,0,-1.0244,-1.0241,0,0,0,0,0,0,0,0,-1.0837,-1.0821,-1.0662,-1.0654,-1.0645,-1.0522,-1.0566,-1.0437,-1.0453,-1.0525,-1.0453,-1.0452,-1.0357,-1.0344,-1.0313,-1.022,-1.0212,-1.0244,-1.024,-1.0237,-1.0235,0,0,0,0,0,0,0,-1.0846,-1.0827,-1.0651,-1.0659,-1.0649,-1.0625,-1.0606,-1.0541,-1.0444,-1.0518,-1.0511,-1.0493,-1.0353,-1.0319,-1.0308,-1.021,-1.0244,-1.0238,-1.0234,-1.0231,-1.0074,-1.0074,0,0,0,0,0,0,-1.0867,-1.0836,-1.0656,-1.0646,-1.0742,-1.0621,-1.06,-1.0561,-1.0445,-1.0427,-1.0493,-1.0489,-1.0331,-1.0316,-1.0301,-1.0248,-1.0237,-1.023,-1.0226,-1.0074,-1.0074,-1.0074,0,0,0,0,0,0,-1.0873,-1.0852,-1.0663,-1.0739,-1.0713,-1.0617,-1.0575,-1.0558,-1.0525,-1.0426,-1.0408,-1.0477,-1.033,-1.0311,-1.0246,-1.0241,-1.0227,-1.0221,-1.0074,-1.0074,-1.0074,-1.0143,0,0,0,0,0,0,-1.088,-1.0855,-1.0841,-1.0739,-1.0709,-1.0613,-1.0574,-1.0555,-1.0514,-1.0507,-1.0406,-1.0389,-1.0329,-1.0257,-1.024,-1.0231,-1.0216,-1.0075,-1.0074,-1.0074,-1.0141,-1.0145,-1.0149,0,0,0,0,0,-1.0889,-1.0867,-1.0841,-1.0819,-1.069,-1.0613,-1.0596,-1.0528,-1.0514,-1.0498,-1.0434,-1.0392,-1.0244,-1.0251,-1.0231,-1.022,-1.0075,-1.0074,-1.0074,-1.0139,-1.0144,-1.0149,0,0,0,0,0,0,-1.097,-1.0853,-1.0822,-1.0767,-1.0701,-1.0598,-1.0576,-1.0536,-1.0472,-1.0468,-1.0385,-1.0363,-1.0306,-1.0256,-1.0266,-1.0176,-1.0155,-1.0151,-1.0211,-1.0215,-1.0219,-1.0232,-1.021,0,0,0,0,0,-1.0982,-1.093,-1.0829,-1.079,-1.0759,-1.0673,-1.0637,-1.059,-1.0518,-1.0489,-1.0421,-1.0351,-1.0288,-1.0249,-1.0186,-1.0133,-1.0108,-1.0115,-1.0119,-1.0123,-1.0121,-1.0086,-1.0087,-1.0074,-1.0074,-1.0074,0,0,-1.1005,-1.0934,-1.0907,-1.0805,-1.0748,-1.0695,-1.065,-1.0597,-1.0556,-1.0481,-1.0416,-1.0363,-1.0279,-1.022,-1.019,-1.0177,-1.0119,-1.0123,-1.0127,-1.0122,-1.0086,-1.0087,-1.0089,-1.0074,-1.0074,-1.0074,0,0,-1.102,-1.0962,-1.0922,-1.0866,-1.078,-1.0723,-1.0714,-1.0616,-1.0578,-1.0512,-1.0454,-1.0403,-1.0298,-1.024,-1.0197,-1.0187,-1.0146,-1.0169,-1.0191,-1.0158,-1.0159,-1.016,-1.0155,-1.0154,-1.0166,-1.0167,-1.0167,0,-1.1059,-1.0978,-1.0906,-1.0855,-1.0811,-1.0741,-1.0698,-1.0647,-1.0545,-1.0515,-1.0502,-1.0366,-1.0306,-1.023,-1.0228,-1.0196,-1.0181,-1.018,-1.0165,-1.0165,-1.0164,-1.0158,-1.0157,-1.017,-1.017,-1.0169,-1.0169,0,-1.103,-1.0974,-1.0952,-1.0855,-1.0808,-1.0762,-1.0681,-1.0642,-1.0599,-1.0543,-1.0474,-1.0398,-1.0318,-1.0296,-1.0254,-1.0214,-1.0208,-1.0181,-1.0158,-1.017,-1.0163,-1.016,-1.0175,-1.0173,-1.0172,-1.0172,0,0,-1.1093,-1.0956,-1.0949,-1.0903,-1.0802,-1.0757,-1.0706,-1.0628,-1.0595,-1.0526,-1.048,-1.0392,-1.0365,-1.0316,-1.0266,-1.0237,-1.0232,-1.0213,-1.0209,-1.0218,-1.0182,-1.0203,-1.0201,-1.0204,-1.0203,-1.0203,-1.0188,0,-1.1092,-1.0999,-1.0932,-1.0864,-1.081,-1.0741,-1.0696,-1.0629,-1.0574,-1.0519,-1.0458,-1.0396,-1.0367,-1.0336,-1.0305,-1.024,-1.0223,-1.024,-1.0158,-1.0157,-1.0181,-1.0198,-1.022,-1.0211,-1.0185,-1.0185,-1.0184,0,-1.108,-1.1014,-1.0941,-1.0844,-1.0819,-1.078,-1.0701,-1.065,-1.0571,-1.0533,-1.0478,-1.0425,-1.0366,-1.0348,-1.0265,-1.0277,-1.0239,-1.0202,-1.02,-1.0189,-1.0171,-1.0187,-1.0206,-1.0205,-1.018,-1.018,-1.018,0,-1.1132,-1.1024,-1.0966,-1.0929,-1.0815,-1.0789,-1.074,-1.066,-1.0617,-1.0547,-1.0518,-1.0443,-1.0401,-1.0343,-1.0271,-1.0265,-1.0194,-1.017,-1.0159,-1.0161,-1.0148,-1.0149,-1.016,-1.0125,-1.0125,-1.0125,-1.0125,0,-1.1139,-1.1097,-1.0987,-1.0952,-1.0901,-1.0823,-1.0774,-1.0719,-1.0649,-1.0599,-1.0535,-1.049,-1.0397,-1.034,-1.0283,-1.0221,-1.0203,-1.017,-1.0155,-1.0175,-1.018,-1.0149,-1.0148,-1.0124,-1.0124,-1.0125,-1.0125,0,-1.1189,-1.1114,-1.1046,-1.0942,-1.0915,-1.0883,-1.0793,-1.0754,-1.0696,-1.0634,-1.0615,-1.0522,-1.0451,-1.0374,-1.0277,-1.0238,-1.0179,-1.0158,-1.0206,-1.0198,-1.0191,-1.0192,-1.0182,-1.0176,-1.0146,-1.0147,-1.0147,0,-1.1198,-1.1163,-1.1056,-1.1019,-1.0971,-1.0912,-1.0867,-1.0788,-1.0743,-1.0649,-1.0621,-1.0545,-1.0481,-1.037,-1.0293,-1.0218,-1.0194,-1.0196,-1.0183,-1.0203,-1.0193,-1.0196,-1.0191,-1.02,-1.0201,-1.0202,-1.0202,0,-1.1222,-1.1186,-1.1124,-1.1048,-1.0996,-1.0933,-1.0867,-1.0839,-1.0746,-1.0699,-1.0626,-1.0576,-1.0476,-1.0401,-1.0316,-1.0263,-1.0216,-1.0207,-1.02,-1.022,-1.0249,-1.0232,-1.0217,-1.0207,-1.0207,-1.0206,-1.0206,-1.0206,-1.125,-1.1216,-1.1134,-1.1067,-1.1008,-1.0947,-1.0905,-1.0841,-1.0779,-1.0692,-1.0648,-1.0575,-1.0494,-1.0375,-1.0323,-1.0263,-1.0249,-1.024,-1.0237,-1.0236,-1.024,-1.0259,-1.0248,-1.0247,-1.0247,-1.0247,-1.0247,0,-1.127,-1.1213,-1.1152,-1.1061,-1.1007,-1.0968,-1.0892,-1.0849,-1.0786,-1.0715,-1.0652,-1.0567,-1.0493,-1.0409,-1.033,-1.0298,-1.0274,-1.028,-1.0281,-1.0269,-1.0259,-1.0272,-1.03,-1.03,-1.03,-1.03,-1.03,-1.03,-1.1273,-1.1212,-1.1167,-1.1075,-1.1018,-1.0946,-1.0906,-1.0849,-1.0791,-1.0699,-1.0637,-1.0583,-1.0506,-1.042,-1.035,-1.0327,-1.03,-1.0311,-1.0282,-1.0274,-1.027,-1.0266,-1.0278,-1.0307,-1.0307,-1.0297,-1.0297,-1.0297]}]]